North Clarendon, VT

8:11 PM EST on February 10, 2016 (GMT -0500)
Rutland State

Weather History for KRUT - August, 2014

Change the Weather History Date:

Sunday, August 24, 2014

  Actual Average Record
Temperature  
Mean Temperature 66 °F -  
Max Temperature 79 °F - 89 °F (1969)
Min Temperature 52 °F - 39 °F (1971)
Degree Days  
Heating Degree Days 0    
Month to date heating degree days 39  
Since 1 June heating degree days 122  
Since 1 July heating degree days 53  
Cooling Degree Days 1    
Month to date cooling degree days 38  
Year to date cooling degree days 212  
Since 1 June cooling degree days 205  
Growing Degree Days 14 (Base 50)    
Moisture  
Dew Point 57 °F    
Average Humidity 78    
Maximum Humidity 96    
Minimum Humidity 60    
Precipitation  
Precipitation 0.00 in - 1.57 in (1998)
Month to date precipitation 2.16  
Year to date precipitation 21.36  
Sea Level Pressure  
Sea Level Pressure 30.17 in    
Wind  
Wind Speed 6 mph (East)    
Max Wind Speed 9 mph    
Max Gust Speed -    
Visibility 10 miles    
Events      
T = Trace of Precipitation, MM = Missing Value Source: NWS Daily Summary

Daily Weather History Graph

Daily Weather History Graph

Search for Another Location

Airport or City:

Trip Planner

Search our weather history database for the weather conditions in past years. The results will help you decide how hot, cold, wet, or windy it might be!

Date:

Astronomy

Aug. 24, 2014 Rise Set
Actual Time 6:06 AM EDT 7:40 PM EDT
Civil Twilight 5:36 AM EDT 8:10 PM EDT
Nautical Twilight 4:59 AM EDT 8:47 PM EDT
Astronomical Twilight 4:20 AM EDT 9:26 PM EDT
Moon 5:14 AM EDT (8/24) 6:56 PM EDT (8/24)
Length of Visible Light 14h 34m
Length of Day
13h 34m
Waning Crescent, 1% of the Moon is Illuminated
Aug 24
Waning Crescent
Aug 25
New
Sep 2
First Quarter
Sep 8
Full
Sep 15
Last Quarter

Hourly Weather History & Observations

Time (EDT) Temp. Dew Point Humidity Pressure Visibility Wind Dir Wind Speed Gust Speed Precip Events Conditions
12:15 AM 55.4 °F 53.6 °F 94% 30.16 in 10.0 mi SE 10.4 mph - N/A   Clear
12:35 AM 55.4 °F 53.6 °F 94% 30.16 in 10.0 mi SE 4.6 mph - N/A   Clear
12:55 AM 55.4 °F 51.8 °F 88% 30.16 in 10.0 mi ESE 9.2 mph - N/A   Clear
1:15 AM 53.6 °F 51.8 °F 94% 30.16 in 10.0 mi SE 6.9 mph - N/A   Clear
1:35 AM 53.6 °F 51.8 °F 94% 30.16 in 10.0 mi SE 8.1 mph - N/A   Clear
1:55 AM 53.6 °F 51.8 °F 94% 30.16 in 10.0 mi SE 6.9 mph - N/A   Clear
2:15 AM 53.6 °F 51.8 °F 94% 30.16 in 10.0 mi SE 5.8 mph - N/A   Clear
2:35 AM 53.6 °F 51.8 °F 94% 30.16 in 10.0 mi SE 5.8 mph - N/A   Clear
2:55 AM 53.6 °F 50.0 °F 88% 30.17 in 10.0 mi SE 8.1 mph - N/A   Clear
3:15 AM 51.8 °F 50.0 °F 94% 30.17 in 10.0 mi SE 5.8 mph - N/A   Scattered Clouds
3:35 AM 51.8 °F 50.0 °F 94% 30.16 in 10.0 mi South 3.5 mph - N/A   Mostly Cloudy
3:55 AM 51.8 °F 50.0 °F 94% 30.16 in 10.0 mi SE 6.9 mph - N/A   Partly Cloudy
4:15 AM 51.8 °F 50.0 °F 94% 30.16 in 10.0 mi SE 6.9 mph - N/A   Clear
4:35 AM 51.8 °F 50.0 °F 94% 30.17 in 10.0 mi SSE 3.5 mph - N/A   Scattered Clouds
4:55 AM 51.8 °F 48.2 °F 88% 30.17 in 10.0 mi SE 5.8 mph - N/A   Partly Cloudy
5:15 AM 51.8 °F 48.2 °F 88% 30.17 in 10.0 mi SE 4.6 mph - N/A   Partly Cloudy
5:35 AM 51.8 °F 48.2 °F 88% 30.18 in 10.0 mi SE 5.8 mph - N/A   Mostly Cloudy
5:55 AM 51.8 °F 50.0 °F 94% 30.18 in 10.0 mi SE 4.6 mph - N/A   Overcast
6:15 AM 51.8 °F 50.0 °F 94% 30.19 in 10.0 mi SE 4.6 mph - N/A   Overcast
6:35 AM 51.8 °F 50.0 °F 94% 30.19 in 10.0 mi SE 4.6 mph - N/A   Overcast
6:55 AM 51.8 °F 50.0 °F 94% 30.19 in 10.0 mi SE 6.9 mph - N/A   Overcast
7:15 AM 53.6 °F 51.8 °F 94% 30.19 in 10.0 mi SE 4.6 mph - N/A   Overcast
7:35 AM 53.6 °F 51.8 °F 94% 30.19 in 10.0 mi Calm Calm - N/A   Overcast
7:55 AM 55.4 °F 53.6 °F 94% 30.20 in 10.0 mi Calm Calm - N/A   Overcast
8:15 AM 57.2 °F 53.6 °F 88% 30.19 in 10.0 mi Calm Calm - N/A   Mostly Cloudy
8:35 AM 59.0 °F 55.4 °F 88% 30.20 in 10.0 mi Calm Calm - N/A   Partly Cloudy
8:55 AM 62.6 °F 55.4 °F 77% 30.20 in 10.0 mi Calm Calm - N/A   Clear
9:15 AM 62.6 °F 57.2 °F 82% 30.20 in 10.0 mi Calm Calm - N/A   Clear
9:35 AM 64.4 °F 57.2 °F 77% 30.20 in 10.0 mi North 3.5 mph - N/A   Clear
9:55 AM 64.4 °F 57.2 °F 77% 30.19 in 10.0 mi NW 3.5 mph - N/A   Clear
10:15 AM 64.4 °F 57.2 °F 77% 30.19 in 10.0 mi NNW 3.5 mph - N/A   Clear
10:35 AM 66.2 °F 57.2 °F 73% 30.19 in 10.0 mi North 3.5 mph - N/A   Clear
10:55 AM 69.8 °F 59.0 °F 68% 30.18 in 10.0 mi NNE 3.5 mph - N/A   Clear
11:15 AM 69.8 °F 60.8 °F 73% 30.18 in 10.0 mi North 4.6 mph - N/A   Clear
11:35 AM 69.8 °F 62.6 °F 78% 30.18 in 10.0 mi NNW 3.5 mph - N/A   Clear
11:55 AM 71.6 °F 60.8 °F 69% 30.18 in 10.0 mi NNW 6.9 mph - N/A   Clear
12:15 PM 71.6 °F 60.8 °F 69% 30.17 in 10.0 mi NW 6.9 mph - N/A   Partly Cloudy
12:35 PM 73.4 °F 60.8 °F 65% 30.17 in 10.0 mi WNW 4.6 mph - N/A   Partly Cloudy
12:55 PM 73.4 °F 60.8 °F 65% 30.16 in 10.0 mi NW 5.8 mph - N/A   Scattered Clouds
1:15 PM 75.2 °F 60.8 °F 61% 30.16 in 10.0 mi North 3.5 mph - N/A   Mostly Cloudy
1:35 PM 75.2 °F 62.6 °F 65% 30.16 in 10.0 mi NW 5.8 mph - N/A   Partly Cloudy
1:55 PM 75.2 °F 60.8 °F 61% 30.15 in 10.0 mi NW 5.8 mph - N/A   Partly Cloudy
2:15 PM 75.2 °F 60.8 °F 61% 30.15 in 10.0 mi NW 8.1 mph - N/A   Scattered Clouds
2:35 PM 77.0 °F 60.8 °F 57% 30.15 in 10.0 mi North 9.2 mph - N/A   Scattered Clouds
2:55 PM 75.2 °F 60.8 °F 61% 30.15 in 10.0 mi NNW 5.8 mph - N/A   Mostly Cloudy
3:15 PM 77.0 °F 60.8 °F 57% 30.14 in 10.0 mi WNW 6.9 mph - N/A   Mostly Cloudy
3:35 PM 77.0 °F 60.8 °F 57% 30.14 in 10.0 mi North 8.1 mph - N/A   Mostly Cloudy
3:55 PM 77.0 °F 62.6 °F 61% 30.13 in 10.0 mi NW 5.8 mph - N/A   Scattered Clouds
4:15 PM 78.8 °F 60.8 °F 54% 30.13 in 10.0 mi NW 3.5 mph - N/A   Mostly Cloudy
4:35 PM 75.2 °F 60.8 °F 61% 30.13 in 10.0 mi NNW 3.5 mph - N/A   Mostly Cloudy
4:55 PM 77.0 °F 62.6 °F 61% 30.13 in 10.0 mi NW 8.1 mph - N/A   Mostly Cloudy
5:15 PM 77.0 °F 60.8 °F 57% 30.13 in 10.0 mi North 8.1 mph - N/A   Scattered Clouds
5:35 PM 75.2 °F 60.8 °F 61% 30.13 in 10.0 mi NW 8.1 mph - N/A   Partly Cloudy
5:55 PM 75.2 °F 60.8 °F 61% 30.13 in 10.0 mi NW 5.8 mph - N/A   Clear
6:15 PM 75.2 °F 60.8 °F 61% 30.13 in 10.0 mi NW 5.8 mph - N/A   Clear
6:35 PM 75.2 °F 60.8 °F 61% 30.13 in 10.0 mi NNW 4.6 mph - N/A   Clear
6:55 PM 73.4 °F 60.8 °F 65% 30.14 in 10.0 mi NNW 4.6 mph - N/A   Clear
7:15 PM 73.4 °F 60.8 °F 65% 30.14 in 10.0 mi Calm Calm - N/A   Clear
7:35 PM 69.8 °F 62.6 °F 78% 30.14 in 10.0 mi Calm Calm - N/A   Clear
7:55 PM 68.0 °F 62.6 °F 83% 30.15 in 10.0 mi Calm Calm - N/A   Clear
8:15 PM 66.2 °F 62.6 °F 88% 30.15 in 10.0 mi Calm Calm - N/A   Clear
8:35 PM 64.4 °F 62.6 °F 94% 30.16 in 10.0 mi SE 5.8 mph - N/A   Clear
8:55 PM 64.4 °F 60.8 °F 88% 30.17 in 10.0 mi SSE 5.8 mph - N/A   Clear
9:15 PM 64.4 °F 60.8 °F 88% 30.17 in 10.0 mi SSE 6.9 mph - N/A   Clear
9:35 PM 64.4 °F 60.8 °F 88% 30.18 in 10.0 mi SE 8.1 mph - N/A   Clear
9:55 PM 64.4 °F 60.8 °F 88% 30.18 in 10.0 mi SE 5.8 mph - N/A   Clear
10:15 PM 62.6 °F 59.0 °F 88% 30.18 in 10.0 mi SE 6.9 mph - N/A   Clear
10:35 PM 62.6 °F 59.0 °F 88% 30.17 in 10.0 mi SE 9.2 mph - N/A   Clear
10:55 PM 62.6 °F 59.0 °F 88% 30.18 in 10.0 mi SE 9.2 mph - N/A   Clear
11:15 PM 60.8 °F 57.2 °F 88% 30.18 in 10.0 mi ESE 6.9 mph - N/A   Clear
11:35 PM 60.8 °F 57.2 °F 88% 30.18 in 10.0 mi ESE 8.1 mph - N/A   Clear
11:55 PM 60.8 °F 57.2 °F 88% 30.19 in 10.0 mi SE 9.2 mph - N/A   Clear